This is the latest recevied weather packets stored in our database for station/object OK1TBF-6. If no packets are shown the sender has not sent any weather packets the latest 10 day(s).
| Time | Temp. | Humidity | Pressure | Rain* | Wind** | Luminosity | Snow |
|---|---|---|---|---|---|---|---|
| 1777872320 | 13.89° C | 53% | 1006 hPa | 0 mm | - | - | - |
| 1777871120 | 13.33° C | 54% | 1006.1 hPa | 0 mm | - | - | - |
| 1777870519 | 12.78° C | 53% | 1006 hPa | 0 mm | - | - | - |
| 1777868120 | 12.22° C | 54% | 1006.3 hPa | 0 mm | - | - | - |
| 1777864519 | 12.22° C | 53% | 1005.8 hPa | 0 mm | - | - | - |
| 1777861819 | 12.22° C | 52% | 1005.8 hPa | 0 mm | - | - | - |
| 1777860919 | 12.78° C | 51% | 1005.8 hPa | 0 mm | - | - | - |
| 1777860618 | 12.78° C | 50% | 1005.8 hPa | 0 mm | - | - | - |
| 1777860318 | 12.78° C | 50% | 1005.7 hPa | 0 mm | - | - | - |
| 1777859718 | 13.33° C | 50% | 1006 hPa | 0 mm | - | - | - |
| 1777859118 | 13.33° C | 50% | 1005.7 hPa | 0 mm | - | - | - |
| 1777856419 | 13.33° C | 48% | 1005.6 hPa | 0 mm | - | - | - |
| 1777854317 | 13.33° C | 48% | 1005.7 hPa | 0 mm | - | - | - |
| 1777854019 | 13.33° C | 48% | 1005.8 hPa | 0 mm | - | - | - |
| 1777848016 | 14.44° C | 48% | 1006.2 hPa | 0 mm | - | - | - |
| 1777847417 | 14.44° C | 47% | 1006.2 hPa | 0 mm | - | - | - |
| 1777847117 | 14.44° C | 48% | 1006.2 hPa | 0 mm | - | - | - |
| 1777846816 | 14.44° C | 48% | 1006.2 hPa | 0 mm | - | - | - |
| 1777846516 | 15° C | 48% | 1006.2 hPa | 0 mm | - | - | - |
| 1777844716 | 15° C | 49% | 1006.4 hPa | 0 mm | - | - | - |
| 1777844115 | 15.56° C | 48% | 1006.6 hPa | 0 mm | - | - | - |
| 1777836316 | 17.22° C | 45% | 1006.5 hPa | 0 mm | - | - | - |
| 1777835716 | 17.22° C | 45% | 1006.6 hPa | 0 mm | - | - | - |
| 1777834816 | 17.78° C | 42% | 1006.5 hPa | 0 mm | - | - | - |
| 1777834215 | 17.78° C | 41% | 1006.5 hPa | 0 mm | - | - | - |
* Rain latest hour (hover to see other rain measurements)
** Current wind speed in m/s (hover to see current wind gust speed)